Cullman, AL

12:25 AM CST on November 20, 2017 (GMT -0600)
Cullman

Weather History for K3A1 - February, 2013

Change the Weather History Date:

Sunday, February 24, 2013

  Actual Average (KHSV) Record (KHSV)
Temperature  
Mean Temperature 42 °F -  
Max Temperature 58 °F 57 °F 81 °F (2017)
Min Temperature 27 °F 36 °F 14 °F (1967)
Degree Days  
Heating Degree Days 22    
Moisture  
Dew Point 32 °F    
Average Humidity 71    
Maximum Humidity 99    
Minimum Humidity 33    
Precipitation  
Precipitation 0.00 in - - ()
Sea Level Pressure  
Sea Level Pressure 30.02 in    
Wind  
Wind Speed 2 mph (North)    
Max Wind Speed 8 mph    
Max Gust Speed -    
Visibility 9 miles    
Events      
Averages and records for this station are not official NWS values.
T = Trace of Precipitation, MM = Missing Value Source: NWS Daily Summary

Daily Weather History Graph

Daily Weather History Graph

Search for Another Location

Airport or City:

Trip Planner

Search our weather history database for the weather conditions in past years. The results will help you decide how hot, cold, wet, or windy it might be!

Date:

Astronomy

Feb. 24, 2013 Rise Set
Actual Time 6:22 AM CST 5:39 PM CST
Civil Twilight 5:56 AM CST 6:04 PM CST
Nautical Twilight 5:27 AM CST 6:34 PM CST
Astronomical Twilight 4:58 AM CST 7:03 PM CST
Moon 4:50 PM CST (2/24) 5:17 AM CST (2/24)
Length of Visible Light 12h 08m
Length of Day
11h 17m
Waxing Gibbous, 99% of the Moon is Illuminated
Feb 24
Waxing Gibbous
Feb 25
Full
Mar 4
Last Quarter
Mar 11
New
Mar 19
First Quarter

Hourly Weather History & Observations

Time (CST) Temp. Windchill Dew Point Humidity Pressure Visibility Wind Dir Wind Speed Gust Speed Precip Events Conditions
12:15 AM 35.6 °F 31.7 °F 32.9 °F 90% 29.98 in 10.0 mi North 4.6 mph - N/A   Clear
12:35 AM 37.2 °F 34.7 °F 33.1 °F 85% 29.98 in 10.0 mi North 3.5 mph - N/A   Clear
12:55 AM 37.6 °F - 32.9 °F 83% 29.99 in 10.0 mi Calm Calm - N/A   Clear
1:15 AM 36.0 °F - 32.4 °F 87% 29.99 in 10.0 mi Calm Calm - N/A   Clear
1:35 AM 33.6 °F - 32.0 °F 94% 29.99 in 10.0 mi Calm Calm - N/A   Clear
1:55 AM 32.9 °F - 32.0 °F 96% 29.99 in 10.0 mi Calm Calm - N/A   Clear
2:15 AM 32.2 °F 28.9 °F 31.6 °F 98% 29.98 in 7.0 mi NNE 3.5 mph - N/A   Clear
2:35 AM 31.5 °F 28.1 °F 30.9 °F 98% 29.98 in 7.0 mi North 3.5 mph - N/A   Clear
2:55 AM 31.5 °F - 30.6 °F 96% 29.98 in 7.0 mi Calm Calm - N/A   Clear
3:15 AM 30.9 °F - 30.6 °F 99% 29.99 in 7.0 mi Calm Calm - N/A   Clear
3:35 AM 31.6 °F - 31.1 °F 98% 29.99 in 10.0 mi Calm Calm - N/A   Clear
3:55 AM 31.3 °F - 30.6 °F 97% 29.99 in 10.0 mi Calm Calm - N/A   Clear
4:15 AM 30.4 °F - 29.7 °F 97% 30.00 in 7.0 mi Calm Calm - N/A   Clear
4:35 AM 30.4 °F - 30.0 °F 99% 30.01 in 7.0 mi Calm Calm - N/A   Clear
4:55 AM 30.4 °F - 29.8 °F 98% 30.01 in 7.0 mi Calm Calm - N/A   Clear
5:15 AM 29.5 °F - 29.1 °F 99% 30.01 in 5.0 mi Calm Calm - N/A   Clear
5:35 AM 29.3 °F - 28.8 °F 98% 30.01 in 5.0 mi Calm Calm - N/A   Clear
5:55 AM 28.9 °F - 28.4 °F 98% 30.02 in 7.0 mi Calm Calm - N/A   Clear
6:15 AM 28.4 °F - 27.9 °F 98% 30.03 in 4.0 mi Calm Calm - N/A   Clear
6:35 AM 27.9 °F - 27.5 °F 99% 30.04 in 2.5 mi Calm Calm - N/A   Clear
6:55 AM 28.8 °F - 28.4 °F 99% 30.05 in 5.0 mi Calm Calm - N/A   Clear
7:15 AM 30.7 °F - 30.2 °F 98% 30.06 in 5.0 mi Calm Calm - N/A   Clear
7:35 AM 32.4 °F - 31.3 °F 96% 30.06 in 10.0 mi Calm Calm - N/A   Clear
7:55 AM 35.2 °F - 32.2 °F 89% 30.07 in 10.0 mi Calm Calm - N/A   Clear
8:15 AM 37.9 °F 35.5 °F 32.5 °F 81% 30.08 in 10.0 mi North 3.5 mph - N/A   Clear
8:35 AM 39.4 °F 37.2 °F 33.1 °F 78% 30.08 in 10.0 mi North 3.5 mph - N/A   Clear
8:55 AM 40.6 °F - 32.7 °F 73% 30.08 in 10.0 mi Calm Calm - N/A   Clear
9:15 AM 42.6 °F - 33.8 °F 71% 30.09 in 10.0 mi Calm Calm - N/A   Clear
9:35 AM 44.2 °F 41.8 °F 33.8 °F 67% 30.09 in 10.0 mi North 4.6 mph - N/A   Clear
9:55 AM 45.7 °F - 34.2 °F 64% 30.09 in 10.0 mi Calm Calm - N/A   Clear
10:15 AM 46.8 °F - 34.0 °F 61% 30.09 in 10.0 mi Calm Calm - N/A   Clear
10:35 AM 48.0 °F - 33.4 °F 57% 30.09 in 10.0 mi North 4.6 mph - N/A   Clear
10:55 AM 48.9 °F - 33.6 °F 56% 30.09 in 10.0 mi NE 6.9 mph - N/A   Clear
11:15 AM 50.4 °F - 32.9 °F 51% 30.08 in 10.0 mi North 4.6 mph - N/A   Clear
11:35 AM 51.4 °F - 33.8 °F 51% 30.07 in 10.0 mi North 6.9 mph - N/A   Clear
11:55 AM 52.5 °F - 32.2 °F 46% 30.07 in 10.0 mi NNW 3.5 mph - N/A   Clear
12:15 PM 53.1 °F - 32.2 °F 45% 30.07 in 10.0 mi WNW 6.9 mph - N/A   Clear
12:35 PM 54.3 °F - 32.4 °F 43% 30.07 in 10.0 mi NNW 3.5 mph - N/A   Clear
12:55 PM 54.7 °F - 32.4 °F 43% 30.06 in 10.0 mi WNW 5.8 mph - N/A   Clear
1:15 PM 55.8 °F - 32.9 °F 42% 30.06 in 10.0 mi North 5.8 mph - N/A   Clear
1:35 PM 55.8 °F - 32.0 °F 41% 30.05 in 10.0 mi NNW 4.6 mph - N/A   Clear
1:55 PM 55.9 °F - 31.6 °F 40% 30.04 in 10.0 mi NNW 3.5 mph - N/A   Clear
2:15 PM 56.5 °F - 31.6 °F 39% 30.03 in 10.0 mi North 5.8 mph - N/A   Clear
2:35 PM 57.2 °F - 31.8 °F 38% 30.02 in 10.0 mi Calm Calm - N/A   Clear
2:55 PM 57.7 °F - 30.6 °F 36% 30.02 in 10.0 mi NE 3.5 mph - N/A   Clear
3:15 PM 58.3 °F - 30.2 °F 34% 30.01 in 10.0 mi North 8.1 mph - N/A   Clear
3:35 PM 58.3 °F - 28.9 °F 33% 30.01 in 10.0 mi North 6.9 mph - N/A   Clear
3:55 PM 58.3 °F - 29.1 °F 33% 30.02 in 10.0 mi NNE 4.6 mph - N/A   Clear
4:15 PM 58.1 °F - 30.0 °F 34% 30.02 in 10.0 mi North 3.5 mph - N/A   Clear
4:35 PM 57.7 °F - 30.2 °F 35% 30.02 in 10.0 mi NNE 4.6 mph - N/A   Clear
4:55 PM 56.8 °F - 30.2 °F 36% 30.02 in 10.0 mi North 4.6 mph - N/A   Clear
5:15 PM 55.4 °F - 31.5 °F 40% 30.02 in 10.0 mi North 4.6 mph - N/A   Clear
5:35 PM 52.7 °F - 31.3 °F 44% 30.02 in 10.0 mi Calm Calm - N/A   Clear
5:55 PM 49.3 °F - 32.5 °F 53% 30.02 in 10.0 mi Calm Calm - N/A   Clear
6:15 PM 46.6 °F - 33.8 °F 61% 30.02 in 10.0 mi Calm Calm - N/A   Clear
6:35 PM 44.1 °F - 34.5 °F 69% 30.02 in 10.0 mi Calm Calm - N/A   Clear
6:55 PM 42.6 °F - 34.9 °F 74% 30.02 in 10.0 mi Calm Calm - N/A   Clear
7:15 PM 42.3 °F - 34.5 °F 74% 30.02 in 10.0 mi Calm Calm - N/A   Clear
7:35 PM 41.0 °F - 33.8 °F 76% 30.02 in 10.0 mi Calm Calm - N/A   Clear
7:55 PM 39.7 °F - 34.0 °F 80% 30.02 in 10.0 mi Calm Calm - N/A   Clear
8:15 PM 39.6 °F - 32.9 °F 77% 30.01 in 10.0 mi Calm Calm - N/A   Clear
8:35 PM 38.8 °F - 32.5 °F 78% 30.01 in 10.0 mi Calm Calm - N/A   Clear
8:55 PM 38.8 °F 36.5 °F 32.4 °F 78% 30.00 in 10.0 mi NE 3.5 mph - N/A   Clear
9:15 PM 38.8 °F - 31.8 °F 76% 30.01 in 10.0 mi Calm Calm - N/A   Clear
9:35 PM 38.8 °F - 32.7 °F 79% 30.00 in 10.0 mi Calm Calm - N/A   Clear
9:55 PM 37.0 °F 32.4 °F 32.7 °F 84% 29.99 in 10.0 mi ENE 5.8 mph - N/A   Clear
10:15 PM 36.1 °F 31.4 °F 32.9 °F 88% 29.97 in 10.0 mi North 5.8 mph - N/A   Clear
10:35 PM 36.0 °F - 32.0 °F 86% 29.98 in 10.0 mi Calm Calm - N/A   Clear
10:55 PM 36.0 °F - 32.0 °F 86% 29.98 in 10.0 mi Calm Calm - N/A   Clear
11:15 PM 37.4 °F - 32.2 °F 81% 29.96 in 10.0 mi Calm Calm - N/A   Clear
11:35 PM 40.3 °F 38.2 °F 32.0 °F 72% 29.96 in 10.0 mi ENE 3.5 mph - N/A   Clear
11:55 PM 44.2 °F 41.0 °F 32.0 °F 62% 29.95 in 10.0 mi ENE 5.8 mph - N/A   Clear